This demonstration page uses our WeatherBlox Daily Observations layout. Learn more.

Left ArrowRight Arrow

Hourly Observations for January 30, 2018

Temp ( °F °C ) Dew Point ( °F °C ) Humidity (%) Winds ( mph kmh ) Pressure ( in mb ) Visibility ( mi km ) Precip ( " mm )
12:56 am 00:56 Clear 22 -5.6 16 -8.9 78 78 SSE 9 15 30.35 1028 10 16 0.00 0.00
1:56 am 01:56 Clear 21 -6.1 16 -8.9 81 81 SSE 8 13 30.31 1027 10 16 0.00 0.00
2:56 am 02:56 Clear 23 -5 17 -8.3 78 78 S 10 17 30.28 1026 10 16 0.00 0.00
3:56 am 03:56 Clear 24 -4.4 18 -7.8 77 77 S 10 17 30.24 1024 10 16 0.00 0.00
4:56 am 04:56 Clear 25 -3.9 18 -7.8 75 75 S 16 26 30.17 1022 10 16 0.00 0.00
5:56 am 05:56 Partly Cloudy 26 -3.3 18 -7.8 71 71 S 12 19 30.16 1022 10 16 0.00 0.00
6:56 am 06:56 Clear 24 -4.4 18 -7.8 77 77 S 13 20 30.15 1021 10 16 0.00 0.00
7:56 am 07:56 Sunny 24 -4.4 17 -8.3 75 75 S 15 24 30.11 1020 10 16 0.00 0.00
8:56 am 08:56 Sunny 27 -2.8 19 -7.2 72 72 S 17 28 30.08 1019 10 16 0.00 0.00
9:56 am 09:56 Sunny 32 0 20 -6.7 61 61 S 17 28 30.04 1017 10 16 0.00 0.00
10:56 am 10:56 Sunny 35 1.7 21 -6.1 57 57 S 15 24 30.00 1016 10 16 0.00 0.00
11:56 am 11:56 Sunny 39 3.9 22 -5.6 50 50 SSW 20 31 29.96 1015 10 16 0.00 0.00
12:56 pm 12:56 Sunny 43 6.1 24 -4.4 47 47 SSW 17 28 29.90 1013 10 16 0.00 0.00
1:56 pm 13:56 Sunny 47 8.3 25 -3.9 42 42 SSW 17 28 29.86 1011 10 16 0.00 0.00
2:56 pm 14:56 Sunny 48 8.9 26 -3.3 42 42 SSW 17 28 29.81 1010 10 16 0.00 0.00
3:56 pm 15:56 Sunny 48 8.9 27 -2.8 44 44 SSW 14 22 29.80 1009 10 16 0.00 0.00
4:56 pm 16:56 Sunny 47 8.3 27 -2.8 46 46 SSW 14 22 29.78 1008 10 16 0.00 0.00
5:56 pm 17:56 Clear 46 7.8 27 -2.8 47 47 SSW 15 24 29.76 1008 10 16 0.00 0.00
6:56 pm 18:56 Clear 45 7.2 26 -3.3 48 48 SSW 13 20 29.76 1008 10 16 0.00 0.00
7:56 pm 19:56 Clear 46 7.8 26 -3.3 46 46 SW 12 19 29.74 1007 10 16 0.00 0.00
8:56 pm 20:56 Clear 45 7.2 26 -3.3 48 48 SW 10 17 29.72 1006 10 16 0.00 0.00
9:56 pm 21:56 Clear 45 7.2 26 -3.3 48 48 SW 10 17 29.70 1006 10 16 0.00 0.00
10:56 pm 22:56 Clear 43 6.1 26 -3.3 51 51 SW 9 15 29.69 1005 10 16 0.00 0.00
11:56 pm 23:56 Clear 42 5.6 28 -2.2 58 58 NW 10 17 29.72 1007 10 16 0.00 0.00

Powered by AerisWeather